| time (UTC) | temp C | wind direction | speed KPH | gust KPH | rain 1hr cm | rain 24hr cm | rain mn cm | humidity % | barometer mb |
| 20260509053048 | 12 | 83 | 1.6 | 6.4 | 0.05 | 1.04 | 0.08 | 58 | 1009.0 |
| 20260509051549 | 12 | 108 | 1.6 | 11.3 | 0.05 | 1.02 | 0.05 | 58 | 1008.9 |
| 20260509050044 | 12 | 119 | 0.0 | 6.4 | 0.05 | 1.02 | 0.05 | 57 | 1008.9 |
| 20260509044544 | 12 | 101 | 0.0 | 9.7 | 0.03 | 0.99 | 0.03 | 57 | 1009.0 |
| 20260509043053 | 12 | 144 | 0.0 | 4.8 | 0.08 | 0.99 | 0.03 | 57 | 1008.9 |
| 20260509041541 | 12 | 238 | 0.0 | 11.3 | 0.05 | 0.97 | 0.00 | 56 | 1009.0 |
| 20260509040040 | 12 | 136 | 0.0 | 6.4 | 0.08 | 0.97 | 0.00 | 56 | 1009.0 |
| 20260509034547 | 12 | 91 | 0.0 | 8.0 | 0.10 | 0.97 | 0.97 | 55 | 1009.0 |
| 20260509033037 | 12 | 103 | 0.0 | 3.2 | 0.08 | 0.91 | 0.91 | 55 | 1009.0 |
| 20260509031534 | 12 | 148 | 0.0 | 1.6 | 0.13 | 0.91 | 0.91 | 55 | 1009.2 |
| 20260509030033 | 12 | 276 | 0.0 | 6.4 | 0.15 | 0.89 | 0.89 | 55 | 1009.4 |
| 20260509024535 | 12 | 108 | 3.2 | 14.5 | 0.15 | 0.86 | 0.86 | 54 | 1009.4 |
| 20260509023034 | 12 | 193 | 1.6 | 9.7 | 0.15 | 0.84 | 0.84 | 54 | 1009.6 |
| 20260509021532 | 12 | 105 | 4.8 | 14.5 | 0.13 | 0.79 | 0.79 | 55 | 1009.7 |
| 20260509020031 | 12 | 6 | 1.6 | 9.7 | 0.13 | 0.71 | 0.71 | 56 | 1009.5 |
| 20260509014531 | 12 | 98 | 1.6 | 12.9 | 0.10 | 0.71 | 0.71 | 56 | 1009.3 |
| 20260509013031 | 12 | 131 | 1.6 | 9.7 | 0.13 | 0.69 | 0.69 | 56 | 1009.3 |
| 20260509011530 | 12 | 84 | 1.6 | 6.4 | 0.15 | 0.66 | 0.66 | 56 | 1009.3 |
| 20260509010033 | 12 | 105 | 1.6 | 4.8 | 0.13 | 0.61 | 0.61 | 56 | 1009.1 |
| 20260509004535 | 12 | 129 | 0.0 | 0.0 | 0.15 | 0.61 | 0.61 | 55 | 1009.1 |
| 20260509003029 | 12 | 104 | 0.0 | 6.4 | 0.13 | 0.56 | 0.56 | 54 | 1009.2 |
| 20260509001532 | 12 | 108 | 0.0 | 4.8 | 0.20 | 0.51 | 0.51 | 54 | 1009.5 |
| 20260509000027 | 12 | 88 | 0.0 | 3.2 | 0.20 | 0.46 | 0.46 | 53 | 1009.7 |
| 20260508234528 | 12 | 100 | 0.0 | 0.0 | 0.25 | 0.46 | 0.46 | 52 | 1009.4 |
| 20260508233027 | 12 | 254 | 0.0 | 4.8 | 0.30 | 0.43 | 0.43 | 52 | 1009.2 |
| 20260508231525 | 12 | 160 | 0.0 | 0.0 | 0.20 | 0.30 | 0.30 | 52 | 1009.8 |
| 20260508230024 | 12 | 160 | 0.0 | 0.0 | 0.20 | 0.25 | 0.25 | 53 | 1009.6 |
| 20260508224531 | 12 | 160 | 0.0 | 0.0 | 0.18 | 0.20 | 0.20 | 55 | 1009.8 |
| 20260508223040 | 12 | 160 | 0.0 | 0.0 | 0.13 | 0.13 | 0.13 | 56 | 1009.9 |
| 20260508221524 | 13 | 160 | 0.0 | 3.2 | 0.10 | 0.10 | 0.10 | 58 | 1009.9 |
| 20260508220027 | 13 | 160 | 0.0 | 1.6 | 0.05 | 0.05 | 0.05 | 61 | 1009.8 |
| 20260508214539 | 14 | 150 | 1.6 | 9.7 | 0.03 | 0.03 | 0.03 | 62 | 1009.8 |
| 20260508213020 | 16 | 103 | 3.2 | 12.9 | 0.00 | 0.00 | 0.00 | 52 | 1009.3 |
| 20260508211519 | 16 | 11 | 1.6 | 14.5 | 0.00 | 0.00 | 0.00 | 48 | 1009.0 |
| 20260508210018 | 17 | 113 | 0.0 | 4.8 | 0.00 | 0.00 | 0.00 | 47 | 1008.9 |
| 20260508204518 | 17 | 113 | 1.6 | 6.4 | 0.00 | 0.00 | 0.00 | 45 | 1008.9 |
| 20260508203018 | 17 | 128 | 0.0 | 3.2 | 0.00 | 0.00 | 0.00 | 44 | 1009.1 |
| 20260508201514 | 17 | 115 | 1.6 | 6.4 | 0.00 | 0.00 | 0.00 | 45 | 1009.4 |
| 20260508200019 | 17 | 108 | 0.0 | 6.4 | 0.00 | 0.00 | 0.00 | 45 | 1009.7 |
| 20260508194510 | 17 | 96 | 1.6 | 8.0 | 0.00 | 0.00 | 0.00 | 43 | 1009.8 |
| 20260508193122 | 17 | 110 | 0.0 | 8.0 | 0.00 | 0.00 | 0.00 | 45 | 1010.2 |
| 20260508191506 | 17 | 97 | 3.2 | 9.7 | 0.00 | 0.00 | 0.00 | 44 | 1010.4 |
| 20260508190012 | 17 | 96 | 3.2 | 8.0 | 0.00 | 0.00 | 0.00 | 43 | 1010.7 |
| 20260508184509 | 17 | 108 | 4.8 | 12.9 | 0.00 | 0.00 | 0.00 | 41 | 1010.8 |
| 20260508183002 | 17 | 108 | 3.2 | 17.7 | 0.00 | 0.00 | 0.00 | 41 | 1010.7 |
| 20260508181501 | 17 | 82 | 4.8 | 14.5 | 0.00 | 0.00 | 0.00 | 41 | 1010.9 |
| 20260508180114 | 17 | 128 | 8.0 | 22.5 | 0.00 | 0.00 | 0.00 | 40 | 1010.9 |
| 20260508174613 | 17 | 110 | 4.8 | 30.6 | 0.00 | 0.00 | 0.00 | 39 | 1011.0 |
| 20260508173059 | 18 | 108 | 8.0 | 20.9 | 0.00 | 0.00 | 0.00 | 37 | 1011.1 |
| 20260508171559 | 18 | 22 | 6.4 | 20.9 | 0.00 | 0.00 | 0.00 | 38 | 1011.3 |
| 20260508170059 | 18 | 99 | 3.2 | 19.3 | 0.00 | 0.00 | 0.00 | 42 | 1011.7 |
| 20260508164552 | 17 | 106 | 6.4 | 22.5 | 0.00 | 0.00 | 0.00 | 39 | 1012.1 |
| 20260508163047 | 17 | 101 | 6.4 | 19.3 | 0.00 | 0.00 | 0.00 | 40 | 1012.3 |
| 20260508161545 | 17 | 302 | 1.6 | 20.9 | 0.00 | 0.00 | 0.00 | 41 | 1012.5 |
| 20260508160042 | 17 | 80 | 6.4 | 19.3 | 0.00 | 0.00 | 0.00 | 40 | 1012.5 |
| 20260508154541 | 16 | 113 | 3.2 | 12.9 | 0.00 | 0.00 | 0.00 | 42 | 1012.7 |
| 20260508153046 | 17 | 105 | 6.4 | 16.1 | 0.00 | 0.00 | 0.00 | 41 | 1012.7 |
| 20260508151538 | 16 | 108 | 9.7 | 22.5 | 0.00 | 0.00 | 0.00 | 40 | 1012.7 |
| 20260508150037 | 16 | 43 | 9.7 | 27.4 | 0.00 | 0.00 | 0.00 | 40 | 1012.8 |
| 20260508144538 | 16 | 117 | 4.8 | 14.5 | 0.00 | 0.00 | 0.00 | 42 | 1013.0 |
| 20260508143035 | 16 | 90 | 6.4 | 20.9 | 0.00 | 0.00 | 0.00 | 42 | 1013.1 |
| 20260508141535 | 16 | 68 | 6.4 | 19.3 | 0.00 | 0.00 | 0.00 | 41 | 1013.2 |
| 20260508140027 | 15 | 72 | 8.0 | 19.3 | 0.00 | 0.00 | 0.00 | 43 | 1013.5 |
| 20260508134530 | 14 | 102 | 6.4 | 16.1 | 0.00 | 0.00 | 0.00 | 42 | 1013.6 |
| 20260508133025 | 14 | 84 | 3.2 | 12.9 | 0.00 | 0.00 | 0.00 | 43 | 1013.8 |
| 20260508131521 | 13 | 107 | 4.8 | 16.1 | 0.00 | 0.00 | 0.00 | 44 | 1013.9 |
| 20260508130030 | 13 | 68 | 0.0 | 8.0 | 0.00 | 0.00 | 0.00 | 47 | 1013.7 |
| 20260508124514 | 12 | 158 | 1.6 | 6.4 | 0.00 | 0.00 | 0.00 | 47 | 1013.6 |
| 20260508123015 | 11 | 143 | 0.0 | 4.8 | 0.00 | 0.00 | 0.00 | 52 | 1013.9 |
| 20260508121510 | 10 | 110 | 1.6 | 6.4 | 0.00 | 0.00 | 0.00 | 52 | 1013.8 |
| 20260508120009 | 9 | 155 | 0.0 | 3.2 | 0.00 | 0.00 | 0.00 | 55 | 1013.8 |
| 20260508114508 | 8 | 155 | 0.0 | 1.6 | 0.00 | 0.00 | 0.00 | 56 | 1013.6 |
| 20260508113008 | 9 | 155 | 1.6 | 6.4 | 0.00 | 0.00 | 0.00 | 54 | 1013.7 |
| 20260508111507 | 9 | 122 | 0.0 | 4.8 | 0.00 | 0.00 | 0.00 | 53 | 1013.3 |
| 20260508110004 | 9 | 127 | 0.0 | 1.6 | 0.00 | 0.00 | 0.00 | 53 | 1013.2 |
| 20260508104502 | 9 | 104 | 0.0 | 3.2 | 0.00 | 0.00 | 0.00 | 52 | 1013.2 |
| 20260508103001 | 9 | 139 | 0.0 | 1.6 | 0.00 | 0.00 | 0.00 | 52 | 1013.1 |
| 20260508101601 | 10 | 79 | 1.6 | 9.7 | 0.00 | 0.00 | 0.00 | 50 | 1013.1 |
| 20260508100059 | 10 | 102 | 0.0 | 8.0 | 0.00 | 0.00 | 0.00 | 51 | 1013.1 |
| 20260508094558 | 10 | 119 | 0.0 | 3.2 | 0.00 | 0.00 | 0.00 | 50 | 1013.2 |
| 20260508093105 | 10 | 112 | 1.6 | 6.4 | 0.00 | 0.00 | 0.00 | 48 | 1013.2 |
| 20260508091558 | 10 | 91 | 0.0 | 3.2 | 0.00 | 0.00 | 0.00 | 49 | 1013.2 |
| 20260508084558 | 11 | 106 | 1.6 | 4.8 | 0.00 | 0.00 | 0.00 | 48 | 1013.5 |
| 20260508083055 | 10 | 108 | 0.0 | 3.2 | 0.00 | 0.00 | 0.00 | 49 | 1013.6 |
| 20260508081600 | 11 | 101 | 3.2 | 6.4 | 0.00 | 0.00 | 0.00 | 48 | 1013.7 |
| 20260508080052 | 11 | 97 | 1.6 | 9.7 | 0.00 | 0.00 | 0.00 | 46 | 1013.7 |
| 20260508074551 | 11 | 79 | 1.6 | 9.7 | 0.00 | 0.00 | 0.00 | 46 | 1013.6 |
| 20260508073051 | 11 | 105 | 3.2 | 12.9 | 0.00 | 0.00 | 0.00 | 46 | 1013.7 |
| 20260508071549 | 11 | 70 | 3.2 | 9.7 | 0.00 | 0.00 | 0.00 | 46 | 1013.5 |
| 20260508070046 | 11 | 82 | 3.2 | 11.3 | 0.00 | 0.00 | 0.00 | 45 | 1013.7 |
| 20260508064544 | 11 | 103 | 3.2 | 11.3 | 0.00 | 0.00 | 0.00 | 46 | 1014.0 |
| 20260508063057 | 11 | 98 | 1.6 | 9.7 | 0.00 | 0.00 | 0.00 | 46 | 1014.0 |
| 20260508061542 | 11 | 123 | 0.0 | 8.0 | 0.00 | 0.00 | 0.00 | 47 | 1013.9 |
| 20260508060038 | 10 | 98 | 3.2 | 9.7 | 0.00 | 0.00 | 0.00 | 47 | 1014.0 |
| 20260508054537 | 10 | 123 | 0.0 | 3.2 | 0.00 | 0.00 | 0.00 | 49 | 1014.2 |